| time (UTC) | temp F | wind direction | speed MPH | gust MPH | rain 1hr in | rain 24hr in | rain mn in | humidity % | barometer mb |
| 20260507223610 | 56 | 195 | 0.0 | 0.0 | 0.00 | 0.00 | 0.00 | 85 | 1015.2 |
| 20260507222610 | 56 | 214 | 3.0 | 3.0 | 0.00 | 0.00 | 0.00 | 82 | 1015.2 |
| 20260507221610 | 56 | 226 | 0.0 | 0.0 | 0.00 | 0.00 | 0.00 | 85 | 1015.2 |
| 20260507220610 | 56 | 234 | 0.0 | 1.0 | 0.00 | 0.00 | 0.00 | 84 | 1015.2 |
| 20260507215610 | 56 | 218 | 0.0 | 1.0 | 0.00 | 0.00 | 0.00 | 84 | 1015.2 |
| 20260507214610 | 56 | 333 | 3.0 | 3.0 | 0.00 | 0.00 | 0.00 | 83 | 1015.2 |
| 20260507213610 | 56 | 200 | 0.0 | 0.0 | 0.00 | 0.00 | 0.00 | 84 | 1015.2 |
| 20260507212608 | 57 | 327 | 3.0 | 3.0 | 0.00 | 0.00 | 0.00 | 83 | 1014.9 |
| 20260507211608 | 55 | 318 | 1.0 | 1.0 | 0.00 | 0.00 | 0.00 | 88 | 1015.2 |
| 20260507205608 | 56 | 218 | 0.0 | 0.0 | 0.00 | 0.00 | 0.00 | 85 | 1014.9 |
| 20260507204608 | 57 | 334 | 2.0 | 2.0 | 0.00 | 0.00 | 0.00 | 82 | 1014.9 |
| 20260507203608 | 57 | 308 | 0.0 | 1.0 | 0.00 | 0.00 | 0.00 | 84 | 1014.9 |
| 20260507202608 | 57 | 338 | 3.0 | 3.0 | 0.00 | 0.00 | 0.00 | 84 | 1014.9 |
| 20260507201608 | 56 | 263 | 1.0 | 1.0 | 0.00 | 0.00 | 0.00 | 86 | 1014.9 |
| 20260507200608 | 56 | 192 | 0.0 | 0.0 | 0.00 | 0.00 | 0.00 | 88 | 1014.9 |
| 20260507195608 | 55 | 213 | 0.0 | 0.0 | 0.00 | 0.00 | 0.00 | 92 | 1014.9 |
| 20260507194608 | 55 | 204 | 0.0 | 0.0 | 0.00 | 0.00 | 0.00 | 90 | 1014.9 |
| 20260507193608 | 56 | 194 | 0.0 | 0.0 | 0.00 | 0.00 | 0.00 | 87 | 1014.9 |
| 20260507192608 | 57 | 310 | 1.0 | 1.0 | 0.00 | 0.00 | 0.00 | 87 | 1014.6 |
| 20260507191608 | 56 | 320 | 3.0 | 3.0 | 0.00 | 0.00 | 0.00 | 89 | 1014.6 |
| 20260507190608 | 56 | 203 | 1.0 | 1.0 | 0.00 | 0.00 | 0.00 | 89 | 1014.6 |
| 20260507185608 | 57 | 203 | 0.0 | 0.0 | 0.00 | 0.00 | 0.00 | 89 | 1014.6 |
| 20260507184608 | 57 | 205 | 0.0 | 0.0 | 0.00 | 0.00 | 0.00 | 88 | 1014.2 |
| 20260507183608 | 57 | 197 | 0.0 | 1.0 | 0.00 | 0.00 | 0.00 | 87 | 1014.2 |
| 20260507182608 | 58 | 206 | 0.0 | 0.0 | 0.00 | 0.00 | 0.00 | 85 | 1014.2 |
| 20260507181608 | 58 | 205 | 0.0 | 0.0 | 0.00 | 0.00 | 0.00 | 84 | 1014.2 |
| 20260507180608 | 59 | 247 | 2.0 | 2.0 | 0.00 | 0.00 | 0.00 | 82 | 1014.2 |
| 20260507175608 | 59 | 204 | 0.0 | 0.0 | 0.00 | 0.00 | 0.00 | 81 | 1014.2 |
| 20260507174608 | 59 | 195 | 0.0 | 1.0 | 0.00 | 0.00 | 0.00 | 78 | 1013.9 |
| 20260507173608 | 60 | 207 | 0.0 | 1.0 | 0.00 | 0.00 | 0.00 | 79 | 1013.9 |
| 20260507172608 | 60 | 203 | 0.0 | 1.0 | 0.00 | 0.00 | 0.00 | 77 | 1014.2 |
| 20260507171608 | 60 | 196 | 0.0 | 1.0 | 0.00 | 0.00 | 0.00 | 77 | 1013.9 |
| 20260507165608 | 61 | 179 | 2.0 | 2.0 | 0.00 | 0.00 | 0.00 | 76 | 1014.2 |
| 20260507162608 | 62 | 200 | 1.0 | 1.0 | 0.00 | 0.00 | 0.00 | 72 | 1014.2 |
| 20260507161608 | 63 | 175 | 1.0 | 3.0 | 0.00 | 0.00 | 0.00 | 68 | 1014.2 |
| 20260507160608 | 64 | 138 | 0.0 | 0.0 | 0.00 | 0.00 | 0.00 | 65 | 1013.9 |
| 20260507155607 | 64 | 189 | 1.0 | 2.0 | 0.00 | 0.00 | 0.00 | 66 | 1013.9 |
| 20260507154608 | 64 | 190 | 1.0 | 3.0 | 0.00 | 0.00 | 0.00 | 67 | 1013.9 |
| 20260507153607 | 64 | 175 | 2.0 | 3.0 | 0.00 | 0.00 | 0.00 | 65 | 1013.9 |
| 20260507152607 | 66 | 141 | 2.0 | 2.0 | 0.00 | 0.00 | 0.00 | 67 | 1013.9 |
| 20260507151608 | 66 | 189 | 2.0 | 2.0 | 0.00 | 0.00 | 0.00 | 62 | 1013.9 |
| 20260507150607 | 66 | 230 | 2.0 | 3.0 | 0.00 | 0.00 | 0.00 | 63 | 1013.9 |
| 20260507145607 | 66 | 203 | 2.0 | 3.0 | 0.00 | 0.00 | 0.00 | 61 | 1013.9 |
| 20260507144608 | 67 | 202 | 1.0 | 1.0 | 0.00 | 0.00 | 0.00 | 65 | 1013.9 |
| 20260507143607 | 66 | 47 | 3.0 | 4.0 | 0.00 | 0.00 | 0.00 | 66 | 1014.2 |
| 20260507142608 | 67 | 170 | 3.0 | 3.0 | 0.00 | 0.00 | 0.00 | 63 | 1014.2 |
| 20260507141610 | 67 | 169 | 1.0 | 1.0 | 0.00 | 0.00 | 0.00 | 63 | 1014.2 |
| 20260507140611 | 68 | 216 | 2.0 | 2.0 | 0.00 | 0.00 | 0.00 | 59 | 1014.6 |
| 20260507135607 | 68 | 133 | 4.0 | 5.0 | 0.00 | 0.00 | 0.00 | 58 | 1014.6 |
| 20260507134607 | 67 | 109 | 1.0 | 2.0 | 0.00 | 0.00 | 0.00 | 59 | 1014.6 |
| 20260507133607 | 67 | 100 | 2.0 | 2.0 | 0.00 | 0.00 | 0.00 | 60 | 1014.6 |
| 20260507132607 | 67 | 180 | 3.0 | 3.0 | 0.00 | 0.00 | 0.00 | 61 | 1014.6 |
| 20260507131607 | 68 | 173 | 1.0 | 2.0 | 0.00 | 0.00 | 0.00 | 59 | 1014.9 |
| 20260507130607 | 68 | 133 | 3.0 | 3.0 | 0.00 | 0.00 | 0.00 | 60 | 1014.9 |
| 20260507125607 | 68 | 194 | 4.0 | 6.0 | 0.00 | 0.00 | 0.00 | 64 | 1014.9 |
| 20260507124608 | 67 | 128 | 2.0 | 3.0 | 0.00 | 0.00 | 0.00 | 63 | 1014.9 |
| 20260507123607 | 67 | 139 | 3.0 | 3.0 | 0.00 | 0.00 | 0.00 | 64 | 1014.6 |
| 20260507122607 | 67 | 96 | 2.0 | 3.0 | 0.00 | 0.00 | 0.00 | 65 | 1014.6 |
| 20260507121607 | 68 | 253 | 1.0 | 2.0 | 0.00 | 0.00 | 0.00 | 66 | 1014.6 |
| 20260507120607 | 68 | 111 | 3.0 | 3.0 | 0.00 | 0.00 | 0.00 | 66 | 1014.6 |
| 20260507115607 | 68 | 148 | 2.0 | 3.0 | 0.00 | 0.00 | 0.00 | 66 | 1014.6 |
| 20260507114607 | 68 | 122 | 3.0 | 3.0 | 0.00 | 0.00 | 0.00 | 68 | 1014.2 |
| 20260507113607 | 68 | 144 | 3.0 | 3.0 | 0.00 | 0.00 | 0.00 | 67 | 1014.6 |
| 20260507112613 | 68 | 185 | 2.0 | 3.0 | 0.00 | 0.00 | 0.00 | 70 | 1014.6 |
| 20260507111607 | 68 | 169 | 0.0 | 3.0 | 0.00 | 0.00 | 0.00 | 70 | 1014.6 |
| 20260507110607 | 68 | 198 | 2.0 | 2.0 | 0.00 | 0.00 | 0.00 | 68 | 1014.6 |
| 20260507105607 | 69 | 170 | 3.0 | 3.0 | 0.00 | 0.00 | 0.00 | 67 | 1014.6 |
| 20260507104607 | 68 | 161 | 3.0 | 4.0 | 0.00 | 0.00 | 0.00 | 67 | 1014.6 |
| 20260507103607 | 67 | 182 | 2.0 | 3.0 | 0.00 | 0.00 | 0.00 | 66 | 1014.6 |
| 20260507102607 | 68 | 80 | 3.0 | 3.0 | 0.00 | 0.00 | 0.00 | 67 | 1014.6 |
| 20260507101607 | 68 | 198 | 3.0 | 4.0 | 0.00 | 0.00 | 0.00 | 67 | 1014.6 |
| 20260507100607 | 68 | 0 | 3.0 | 4.0 | 0.00 | 0.00 | 0.00 | 66 | 1014.9 |
| 20260507095607 | 68 | 175 | 3.0 | 4.0 | 0.00 | 0.00 | 0.00 | 68 | 1014.6 |
| 20260507094607 | 67 | 357 | 2.0 | 2.0 | 0.00 | 0.00 | 0.00 | 68 | 1014.6 |
| 20260507093607 | 66 | 174 | 2.0 | 3.0 | 0.00 | 0.00 | 0.00 | 72 | 1014.6 |
| 20260507091607 | 66 | 90 | 2.0 | 2.0 | 0.00 | 0.00 | 0.00 | 71 | 1014.6 |
| 20260507090607 | 66 | 253 | 3.0 | 3.0 | 0.00 | 0.00 | 0.00 | 70 | 1014.6 |
| 20260507085607 | 66 | 180 | 4.0 | 5.0 | 0.00 | 0.00 | 0.00 | 71 | 1014.6 |
| 20260507084607 | 66 | 90 | 3.0 | 3.0 | 0.00 | 0.00 | 0.00 | 71 | 1014.6 |
| 20260507083607 | 67 | 148 | 1.0 | 2.0 | 0.00 | 0.00 | 0.00 | 68 | 1014.2 |
| 20260507082607 | 66 | 184 | 2.0 | 3.0 | 0.00 | 0.00 | 0.00 | 68 | 1014.2 |
| 20260507081607 | 66 | 152 | 3.0 | 3.0 | 0.00 | 0.00 | 0.00 | 67 | 1014.2 |
| 20260507080607 | 67 | 95 | 0.0 | 1.0 | 0.00 | 0.00 | 0.00 | 66 | 1014.2 |
| 20260507075607 | 67 | 199 | 2.0 | 3.0 | 0.00 | 0.00 | 0.00 | 65 | 1013.9 |
| 20260507074607 | 67 | 189 | 1.0 | 2.0 | 0.00 | 0.00 | 0.00 | 64 | 1014.2 |
| 20260507073607 | 66 | 154 | 2.0 | 3.0 | 0.00 | 0.00 | 0.00 | 63 | 1014.2 |
| 20260507072607 | 65 | 181 | 3.0 | 3.0 | 0.00 | 0.00 | 0.00 | 66 | 1013.9 |
| 20260507071607 | 66 | 225 | 1.0 | 2.0 | 0.00 | 0.00 | 0.00 | 66 | 1013.9 |
| 20260507070607 | 65 | 172 | 2.0 | 3.0 | 0.00 | 0.00 | 0.00 | 66 | 1013.9 |
| 20260507065607 | 64 | 153 | 2.0 | 2.0 | 0.00 | 0.00 | 0.00 | 66 | 1013.5 |
| 20260507064607 | 64 | 132 | 1.0 | 3.0 | 0.00 | 0.00 | 0.00 | 69 | 1013.5 |
| 20260507063607 | 65 | 181 | 1.0 | 1.0 | 0.00 | 0.00 | 0.00 | 69 | 1013.5 |
| 20260507062607 | 63 | 157 | 1.0 | 1.0 | 0.00 | 0.00 | 0.00 | 71 | 1013.5 |
| 20260507061607 | 61 | 25 | 2.0 | 3.0 | 0.00 | 0.00 | 0.00 | 71 | 1013.2 |
| 20260507060607 | 61 | 21 | 3.0 | 3.0 | 0.00 | 0.00 | 0.00 | 72 | 1013.2 |
| 20260507055607 | 60 | 26 | 3.0 | 4.0 | 0.00 | 0.00 | 0.00 | 71 | 1013.2 |
| 20260507054607 | 60 | 0 | 3.0 | 3.0 | 0.00 | 0.00 | 0.00 | 70 | 1013.2 |
| 20260507053607 | 60 | 2 | 1.0 | 2.0 | 0.00 | 0.00 | 0.00 | 74 | 1012.9 |
| 20260507052607 | 60 | 272 | 2.0 | 2.0 | 0.00 | 0.00 | 0.00 | 72 | 1012.9 |
| 20260507051607 | 59 | 339 | 1.0 | 2.0 | 0.00 | 0.00 | 0.00 | 72 | 1012.9 |
| 20260507050607 | 56 | 339 | 2.0 | 2.0 | 0.00 | 0.00 | 0.00 | 77 | 1012.5 |
| 20260507045607 | 54 | 279 | 2.0 | 2.0 | 0.00 | 0.00 | 0.00 | 81 | 1012.5 |
| 20260507044607 | 53 | 202 | 1.0 | 1.0 | 0.00 | 0.00 | 0.00 | 85 | 1012.5 |
| 20260507043607 | 53 | 201 | 0.0 | 0.0 | 0.00 | 0.00 | 0.00 | 86 | 1012.2 |
| 20260507042607 | 54 | 232 | 1.0 | 2.0 | 0.00 | 0.00 | 0.00 | 83 | 1012.2 |
| 20260507041607 | 54 | 219 | 0.0 | 1.0 | 0.00 | 0.00 | 0.00 | 83 | 1012.2 |
| 20260507040607 | 54 | 226 | 1.0 | 1.0 | 0.00 | 0.00 | 0.00 | 84 | 1012.2 |
| 20260507035607 | 53 | 314 | 1.0 | 1.0 | 0.00 | 0.00 | 0.00 | 88 | 1012.2 |
| 20260507034607 | 54 | 224 | 0.0 | 1.0 | 0.00 | 0.00 | 0.00 | 86 | 1012.2 |
| 20260507033607 | 54 | 213 | 0.0 | 0.0 | 0.00 | 0.00 | 0.00 | 85 | 1011.9 |
| 20260507032607 | 53 | 317 | 1.0 | 1.0 | 0.00 | 0.00 | 0.00 | 88 | 1011.9 |
| 20260507031607 | 53 | 202 | 2.0 | 3.0 | 0.00 | 0.00 | 0.00 | 88 | 1011.9 |
| 20260507030608 | 53 | 241 | 1.0 | 1.0 | 0.00 | 0.00 | 0.00 | 90 | 1011.9 |
| 20260507025607 | 54 | 207 | 1.0 | 1.0 | 0.00 | 0.00 | 0.00 | 89 | 1011.9 |
| 20260507024607 | 53 | 233 | 0.0 | 1.0 | 0.00 | 0.00 | 0.00 | 89 | 1011.9 |
| 20260507023607 | 54 | 203 | 0.0 | 0.0 | 0.00 | 0.00 | 0.00 | 86 | 1011.9 |
| 20260507022607 | 55 | 265 | 2.0 | 3.0 | 0.00 | 0.00 | 0.00 | 80 | 1011.9 |
| 20260507021607 | 55 | 250 | 1.0 | 2.0 | 0.00 | 0.00 | 0.00 | 80 | 1011.9 |
| 20260507020607 | 55 | 239 | 3.0 | 3.0 | 0.00 | 0.00 | 0.00 | 82 | 1011.9 |
| 20260507015607 | 54 | 219 | 1.0 | 1.0 | 0.00 | 0.00 | 0.00 | 82 | 1011.5 |
| 20260507014607 | 54 | 214 | 0.0 | 0.0 | 0.00 | 0.00 | 0.00 | 80 | 1011.5 |
| 20260507013607 | 54 | 233 | 1.0 | 1.0 | 0.00 | 0.00 | 0.00 | 82 | 1011.2 |
| 20260507012607 | 56 | 198 | 0.0 | 0.0 | 0.00 | 0.00 | 0.00 | 77 | 1011.2 |
| 20260507011607 | 56 | 358 | 3.0 | 4.0 | 0.00 | 0.00 | 0.00 | 76 | 1011.5 |
| 20260507010607 | 54 | 224 | 0.0 | 1.0 | 0.00 | 0.00 | 0.00 | 80 | 1011.5 |
| 20260507005607 | 55 | 224 | 1.0 | 1.0 | 0.00 | 0.00 | 0.00 | 80 | 1011.5 |
| 20260507004607 | 54 | 211 | 0.0 | 0.0 | 0.00 | 0.00 | 0.00 | 79 | 1011.5 |
| 20260507003607 | 54 | 203 | 0.0 | 0.0 | 0.00 | 0.00 | 0.00 | 81 | 1011.5 |
| 20260507002607 | 56 | 186 | 2.0 | 3.0 | 0.00 | 0.00 | 0.00 | 75 | 1011.5 |
| 20260507001607 | 56 | 347 | 2.0 | 2.0 | 0.00 | 0.00 | 0.00 | 78 | 1011.5 |
| 20260507000607 | 56 | 206 | 0.0 | 1.0 | 0.00 | 0.00 | 0.00 | 80 | 1011.5 |
| 20260506235607 | 56 | 194 | 0.0 | 2.0 | 0.00 | 0.00 | 0.00 | 78 | 1011.5 |
| 20260506234607 | 56 | 315 | 2.0 | 2.0 | 0.00 | 0.00 | 0.00 | 77 | 1011.5 |
| 20260506233607 | 56 | 209 | 1.0 | 2.0 | 0.00 | 0.00 | 0.00 | 80 | 1011.5 |
| 20260506232607 | 56 | 332 | 1.0 | 1.0 | 0.00 | 0.00 | 0.00 | 80 | 1011.5 |
| 20260506231607 | 56 | 214 | 1.0 | 2.0 | 0.00 | 0.00 | 0.00 | 79 | 1011.5 |
| 20260506225607 | 57 | 259 | 3.0 | 4.0 | 0.00 | 0.00 | 0.14 | 76 | 1011.5 |
| 20260506224607 | 56 | 270 | 3.0 | 3.0 | 0.00 | 0.00 | 0.14 | 80 | 1011.5 |